STARLINK-4677, 53600

Orbit data source: Space-Track

STARLINK-4677, 53600 is a payload satellite owned by SpaceX/Seattle (US) in LEO that was launched on Sun, 28 Aug 2022 UTC via an FALCON 9 launch vehicle from the Air Force Eastern Test Range (AFETR). Payload-class satellites include a variety of spacecraft equipped with specific instruments for various scientific and technological missions. These include communications satellites like Starlink; space stations such as the ISS; scientific satellites like the Hubble; Earth observation satellites from companies like Planet Labs, Umbra, and HawkEye 360; GPS; miniature CubeSats for education and research; and military/defense satellites.

Loading next visibility...
Identifier
53600, 2022-104N
Orbit
LEO
Country
Flag of USUS
Related business
Manufacturer
SpaceX/Seattle
Mission
Operational Commercial Communications
Bus & Motor
STARLINK, Unknown motor
Mass
300 kg wet, ~290 kg dry
Launch date (UTC)
2022-08-28 (3 years ago)
Launch vehicle
FALCON 9
Launch site
Air Force Eastern Test Range (AFETR)
Object type
Payload
Rocket body
Debris
Shape & HBR
Box + 1 Pan, 10.1 m
Radar Cross Section
13.562 m², Large (>1 m²)

Expand to show TLE details & history
Last TLE update: 18 hours ago

TLE from 18 hours ago
0 STARLINK-4677
1 53600U 22104N   26036.66055706 -.00000040  00000-0  15590-4 0  9994
2 53600  53.2182  28.3091 0001391  89.4266 270.6886 15.08838945190771
Epoch: 2026-02-05T15:51Z
TLE epoch observation values (Epoch: 2026-02-05T15:51:12.129Z)
Latitude
-0.00001°
Longitude
14.69896°
Altitude
540.633 km
Speed
7.593 km/s
True Right ascension
01h 53m 14s
True Declination
0° 00' 00"
Sunlit
Object was in daylight at epoch
Visualization orbit readout
Latitude
Unknown
Longitude
Unknown
Altitude
Unknown
Speed
Unknown
Apparent Right ascension
Unknown
Apparent Declination
Unknown
Sunlit
N/A
Visualization observer readout
Local Sidereal Time
12:07:05
Azimuth
Unknown
Elevation
Unknown
Doppler factor
Unknown
Orbital elements
Apogee altitude
540.954 km
Perigee altitude
539.029 km
Semi-major axis
6,918.128 km
Eccentricity
0.00014
Inclination
53.2182°
RAAN
28.3091°
Arg. of periapsis
89.4266°
True anomaly
270.67266°
Mean anomaly
270.6886°
Eccentric anomaly
270.68063°
Mean motion
3.7719 °/min
Orbital period
95.44 mins
BSTAR
0.00001559
Loading maneuver chart data...
Computing Atmospheric mass density...
Loading historical data...
Loading historical data...
Loading historical data...
Loading historical data...
Loading historical data...
Loading historical data...
Loading historical data...

Documentation

Showing up to 5 results
|